Regional Weather Roundup
Issued by NWS

Home | Current Version | Previous Version | Graphics & Text | Print | Product List | Glossary On
Versions: 1 2 3 4 5 6 7 8 9 10 11 12 13 14 15 16 17 18 19 20 21 22 23 24 25 26 27 28 29 30 31 32 33 34 35 36 37 38 39 40 41 42 43 44 45 46 47 48 49 50
000
ASUS45 KABQ 241301
RWRNM
NEW MEXICO REGIONAL WEATHER ROUNDUP
NATIONAL WEATHER SERVICE ALBUQUERQUE NM
700 AM MDT TUE MAY 24 2016

NOTE: "FAIR" MEANS FEW OR NO CLOUDS BELOW 12,000 FEET AGL WITH NO
       SIGNIFICANT WEATHER OR OBSTRUCTIONS TO VISION.

      THIS PRODUCT IS RELEASED AS TWO VERSIONS.  ONE VERSION NEAR
      THE TOP OF THE HOUR CONTAINING PRELIMINARY DATA FROM ALBUQUERQUE
      AND OTHER STATIONS.  A FINAL VERSION WITH ADDITIONAL DATA IS
      ISSUED ABOUT 10 MINUTES AFTER THE HOUR.

NMZ501-503-504-510>518-241400-
NORTHWEST PLATEAU/NORTHCENTRAL MOUNTAINS

CITY           SKY/WX    TMP DP  RH WIND       PRES   REMARKS
FARMINGTON     FAIR      46  24  42 E6        29.98R
SANTA FE       FAIR      46  22  38 N6        30.04R
TAOS           FAIR      43  21  42 N5        30.09R
ANGEL FIRE     FAIR      30  26  85 CALM      30.14R

$$
NMZ402-403-502-505>509-241400-
WESTCENTRAL MOUNTAINS/SOUTHWEST MOUNTAINS

CITY           SKY/WX    TMP DP  RH WIND       PRES   REMARKS
GALLUP         FAIR      40  23  50 E3        30.04R
GRANTS         FAIR      39  20  46 CALM      30.07R
SILVER CITY      N/A     48  23  37 N6        30.05R

$$
NMZ407-409-411-412-241400-
SOUTHERN DESERTS

CITY           SKY/WX    TMP DP  RH WIND       PRES   REMARKS
LORDSBURG      FAIR      55  23  28 S5        29.99R
DEMING         FAIR      53  23  31 W5        30.00R
HOLLOMAN AFB   FAIR      64  21  19 SE9       29.96R
ALAMOGORDO     FAIR      63  27  25 SE7       29.98R
T OR C         FAIR      62  24  23 SW3       29.98R

$$
NMZ519>523-241400-
CENTRAL VALLEYS/CENTRAL HIGHLANDS

CITY           SKY/WX    TMP DP  RH WIND       PRES   REMARKS
ALBUQUERQUE    FAIR      57  24  28 NE5       30.00R
DOUBLE EAGLE   SUNNY     48  27  43 W6        30.03R
CLINES CORNERS FAIR      51  24  34 W8        30.06R
BELEN          FAIR      54  22  29 CALM      30.00R
SOCORRO        NOT AVBL

$$
NMZ524>526-539-540-241400-
SOUTHCENTRAL MOUNTAINS

CITY           SKY/WX    TMP DP  RH WIND       PRES   REMARKS
RUIDOSO        NOT AVBL

$$
NMZ527>531-241400-
NORTHEAST HIGHLANDS/NORTHEAST PLAINS

CITY           SKY/WX    TMP DP  RH WIND       PRES   REMARKS
LAS VEGAS      FAIR      51  28  41 SW5       30.03R
RATON          FAIR      46  27  47 NE8       29.98R
CLAYTON        FAIR      53  35  50 W12       29.89R

$$
NMZ532>537-241400-
EASTCENTRAL PLAINS

CITY           SKY/WX    TMP DP  RH WIND       PRES   REMARKS
TUCUMCARI      FAIR      60  33  36 W7        29.88R
CANNON AFB     FAIR      62  52  71 SW2       29.93R
CLOVIS AIRPORT FAIR      57  52  82 SW9       29.93R

$$
NMZ028-029-538-241400-
SOUTHEAST PLAINS

CITY           SKY/WX    TMP DP  RH WIND       PRES   REMARKS
ROSWELL        FAIR      58  30  34 SW5       29.90R
ARTESIA        FAIR      63  21  20 S5        29.92R
CARLSBAD       FAIR      65  55  70 S7        29.91R
HOBBS          PTSUNNY   66  66 100 S7        29.93S FOG


$$




USA.gov is the U.S. government's official web portal to all federal, state and local government web resources and services.